Weather History for Staples, MN

Change the Weather History Date:

Sunday, December 15, 2013

  Actual Average Record
Temperature  
Mean Temperature -8 °F -  
Max Temperature -2 °F 23 °F 42 °F (1997)
Min Temperature -14 °F 8 °F -20 °F (2008)
Degree Days  
Heating Degree Days 73    
Moisture  
Dew Point -15 °F    
Average Humidity 72    
Maximum Humidity 84    
Minimum Humidity 60    
Precipitation  
Precipitation 0.00 in - - ()
Sea Level Pressure  
Sea Level Pressure 30.08 in    
Wind  
Wind Speed 5 mph (North)    
Max Wind Speed 9 mph    
Max Gust Speed -    
Visibility 10 miles    
Events      
Averages and records for this station are not official NWS values.
T = Trace of Precipitation, MM = Missing Value Source: NWS Daily Summary

Daily Weather History Graph

Daily Weather History Graph

Search for Another Location

Airport:

Trip Planner

Search our weather history database for the weather conditions in past years. The results will help you decide how hot, cold, wet, or windy it might be!

Date:

Astronomy

Dec. 15, 2013 Rise Set
Actual Time 7:56 AM CST 4:33 PM CST
Civil Twilight 7:21 AM CST 5:07 PM CST
Nautical Twilight 6:42 AM CST 5:46 PM CST
Astronomical Twilight 6:06 AM CST 6:22 PM CST
Moon 3:41 PM CST (12/15) 6:08 AM CST (12/15)
Length of Visible Light 9h 46m
Length of Day
8h 36m
Waxing Gibbous, 98% of the Moon is Illuminated
Dec 15
Waxing Gibbous
Dec 17
Full
Dec 25
Last Quarter
Jan 1
New
Jan 7
First Quarter

Hourly Weather History & Observations

Time (CST) Temp. Windchill Dew Point Humidity Pressure Visibility Wind Dir Wind Speed Gust Speed Precip Events Conditions
12:13 AM -9.4 °F -26.8 °F -14.8 °F 77% 30.10 in 10.0 mi NW 9.2 mph - N/A   Overcast
12:33 AM -9.4 °F -26.8 °F -14.8 °F 77% 30.09 in 10.0 mi NW 9.2 mph - N/A   Mostly Cloudy
12:53 AM -9.4 °F -25.6 °F -13.0 °F 84% 30.08 in 10.0 mi NW 8.1 mph - N/A   Overcast
1:14 AM -9.4 °F -24.3 °F -13.0 °F 84% 30.07 in 10.0 mi NW 6.9 mph - N/A   Overcast
1:33 AM -9.4 °F -24.3 °F -13.0 °F 84% 30.07 in 10.0 mi NW 6.9 mph - N/A   Overcast
1:53 AM -7.6 °F -23.4 °F -11.2 °F 84% 30.09 in 10.0 mi NW 8.1 mph - N/A   Overcast
2:13 AM -7.6 °F -23.4 °F -11.2 °F 84% 30.09 in 10.0 mi NNW 8.1 mph - N/A   Overcast
2:33 AM -7.6 °F -22.1 °F -11.2 °F 84% 30.09 in 10.0 mi NW 6.9 mph - N/A   Overcast
2:53 AM -7.6 °F -24.6 °F -11.2 °F 84% 30.09 in 10.0 mi NNW 9.2 mph - N/A   Overcast
3:13 AM -7.6 °F -23.4 °F -11.2 °F 84% 30.09 in 10.0 mi NNW 8.1 mph - N/A   Overcast
3:33 AM -7.6 °F -22.1 °F -11.2 °F 84% 30.10 in 10.0 mi NNW 6.9 mph - N/A   Overcast
3:53 AM -7.6 °F -23.4 °F -11.2 °F 84% 30.10 in 10.0 mi NNW 8.1 mph - N/A   Overcast
4:13 AM -7.6 °F -23.4 °F -11.2 °F 84% 30.10 in 10.0 mi NNW 8.1 mph - N/A   Overcast
4:33 AM -7.6 °F -23.4 °F -11.2 °F 84% 30.09 in 10.0 mi NNW 8.1 mph - N/A   Overcast
4:53 AM -7.6 °F -23.4 °F -11.2 °F 84% 30.08 in 10.0 mi NNW 8.1 mph - N/A   Overcast
5:13 AM -7.6 °F -23.4 °F -11.2 °F 84% 30.08 in 10.0 mi North 8.1 mph - N/A   Overcast
5:33 AM -7.6 °F -22.1 °F -13.0 °F 77% 30.09 in 10.0 mi NNW 6.9 mph - N/A   Overcast
5:53 AM -9.4 °F -22.7 °F -14.8 °F 77% 30.09 in 10.0 mi North 5.8 mph - N/A   Scattered Clouds
6:13 AM -11.2 °F -20.6 °F -14.8 °F 84% 30.09 in 10.0 mi North 3.5 mph - N/A   Clear
6:33 AM -14.8 °F -27.2 °F -18.4 °F 84% 30.10 in 10.0 mi NNW 4.6 mph - N/A   Clear
6:54 AM -14.8 °F -29.1 °F -18.4 °F 84% 30.10 in 10.0 mi North 5.8 mph - N/A   Clear
7:13 AM -14.8 °F -24.8 °F -18.4 °F 84% 30.10 in 10.0 mi North 3.5 mph - N/A   Scattered Clouds
7:33 AM -11.2 °F -20.6 °F -16.6 °F 77% 30.10 in 10.0 mi NNW 3.5 mph - N/A   Mostly Cloudy
7:54 AM -11.2 °F -26.4 °F -14.8 °F 84% 30.10 in 10.0 mi North 6.9 mph - N/A   Overcast
8:13 AM -11.2 °F -24.8 °F -16.6 °F 77% 30.11 in 10.0 mi NNW 5.8 mph - N/A   Overcast
8:33 AM -13.0 °F -22.7 °F -16.6 °F 84% 30.12 in 10.0 mi NNW 3.5 mph - N/A   Mostly Cloudy
8:54 AM -14.8 °F -27.2 °F -18.4 °F 84% 30.12 in 10.0 mi NNW 4.6 mph - N/A   Scattered Clouds
9:13 AM -14.8 °F -29.1 °F -18.4 °F 84% 30.12 in 10.0 mi NNW 5.8 mph - N/A   Clear
9:33 AM -13.0 °F -28.6 °F -18.4 °F 77% 30.11 in 10.0 mi North 6.9 mph - N/A   Clear
9:54 AM -11.2 °F -23.0 °F -18.4 °F 70% 30.11 in 10.0 mi North 4.6 mph - N/A   Clear
10:13 AM -11.2 °F -23.0 °F -18.4 °F 70% 30.10 in 10.0 mi North 4.6 mph - N/A   Clear
10:33 AM -11.2 °F -20.6 °F -18.4 °F 70% 30.11 in 10.0 mi NNW 3.5 mph - N/A   Clear
10:54 AM -9.4 °F -18.6 °F -18.4 °F 65% 30.12 in 10.0 mi NNW 3.5 mph - N/A   Clear
11:13 AM -9.4 °F - -16.6 °F 71% 30.11 in 10.0 mi Calm Calm - N/A   Clear
11:33 AM -7.6 °F -16.5 °F -16.6 °F 65% 30.10 in 10.0 mi North 3.5 mph - N/A   Clear
11:54 AM -7.6 °F -16.5 °F -16.6 °F 65% 30.09 in 10.0 mi NNW 3.5 mph - N/A   Clear
12:13 PM -7.6 °F - -16.6 °F 65% 30.08 in 10.0 mi Calm Calm - N/A   Clear
12:33 PM -7.6 °F - -16.6 °F 65% 30.09 in 10.0 mi Calm Calm - N/A   Scattered Clouds
12:54 PM -7.6 °F -18.8 °F -16.6 °F 65% 30.07 in 10.0 mi NNE 4.6 mph - N/A   Scattered Clouds
1:13 PM -5.8 °F -16.7 °F -16.6 °F 60% 30.06 in 10.0 mi NE 4.6 mph - N/A   Clear
1:33 PM -5.8 °F - -16.6 °F 60% 30.06 in 10.0 mi Calm Calm - N/A   Clear
1:54 PM -5.8 °F - -16.6 °F 60% 30.05 in 10.0 mi Calm Calm - N/A   Clear
2:13 PM -5.8 °F - -16.6 °F 60% 30.05 in 10.0 mi Calm Calm - N/A   Clear
2:33 PM -7.6 °F - -16.6 °F 65% 30.06 in 10.0 mi Calm Calm - N/A   Clear
2:54 PM -5.8 °F - -14.8 °F 65% 30.06 in 10.0 mi Calm Calm - N/A   Clear
3:13 PM -5.8 °F - -16.6 °F 60% 30.06 in 10.0 mi Calm Calm - N/A   Clear
3:33 PM -5.8 °F - -16.6 °F 60% 30.06 in 10.0 mi Calm Calm - N/A   Clear
3:53 PM -5.8 °F - -16.6 °F 60% 30.06 in 10.0 mi Calm Calm - N/A   Clear
4:14 PM -7.6 °F - -16.6 °F 65% 30.06 in 10.0 mi Calm Calm - N/A   Mostly Cloudy
4:33 PM -5.8 °F - -14.8 °F 65% 30.06 in 10.0 mi Calm Calm - N/A   Scattered Clouds
4:53 PM -4.0 °F - -14.8 °F 60% 30.06 in 10.0 mi Calm Calm - N/A   Mostly Cloudy
5:13 PM -4.0 °F - -14.8 °F 60% 30.07 in 10.0 mi Calm Calm - N/A   Mostly Cloudy
5:33 PM -4.0 °F - -14.8 °F 60% 30.06 in 10.0 mi Calm Calm - N/A   Overcast
5:53 PM -4.0 °F - -14.8 °F 60% 30.06 in 10.0 mi Calm Calm - N/A   Overcast
6:13 PM -4.0 °F - -14.8 °F 60% 30.06 in 10.0 mi Calm Calm - N/A   Overcast
6:33 PM -5.8 °F - -14.8 °F 65% 30.05 in 10.0 mi Calm Calm - N/A   Overcast
6:53 PM -5.8 °F - -14.8 °F 65% 30.05 in 10.0 mi Calm Calm - N/A   Overcast
7:13 PM -5.8 °F - -14.8 °F 65% 30.06 in 10.0 mi Calm Calm - N/A   Overcast
7:33 PM -5.8 °F - -14.8 °F 65% 30.08 in 10.0 mi Calm Calm - N/A   Overcast
7:53 PM -5.8 °F - -14.8 °F 65% 30.06 in 10.0 mi Calm Calm - N/A   Overcast
8:13 PM -5.8 °F -14.5 °F -14.8 °F 65% 30.06 in 10.0 mi East 3.5 mph - N/A   Overcast
8:33 PM -5.8 °F - -13.0 °F 71% 30.05 in 10.0 mi Calm Calm - N/A   Overcast
8:53 PM -5.8 °F -14.5 °F -14.8 °F 65% 30.05 in 10.0 mi ESE 3.5 mph - N/A   Overcast
9:13 PM -5.8 °F -16.7 °F -13.0 °F 71% 30.04 in 10.0 mi ESE 4.6 mph - N/A   Overcast
9:33 PM -5.8 °F -18.4 °F -13.0 °F 71% 30.03 in 10.0 mi SE 5.8 mph - N/A   Overcast
9:53 PM -4.0 °F -14.6 °F -13.0 °F 65% 30.04 in 10.0 mi SSE 4.6 mph - N/A   Overcast
10:13 PM -4.0 °F -14.6 °F -13.0 °F 65% 30.04 in 10.0 mi SE 4.6 mph - N/A   Overcast
10:33 PM -4.0 °F -12.4 °F -11.2 °F 71% 30.05 in 10.0 mi SSE 3.5 mph - N/A   Overcast
10:53 PM -4.0 °F - -11.2 °F 71% 30.05 in 10.0 mi Calm Calm - N/A   Overcast
11:14 PM -2.2 °F -14.2 °F -11.2 °F 66% 30.03 in 10.0 mi SE 5.8 mph - N/A   Overcast
11:33 PM -2.2 °F -12.5 °F -11.2 °F 66% 30.01 in 10.0 mi SE 4.6 mph - N/A   Overcast
11:53 PM -2.2 °F -14.2 °F -11.2 °F 66% 30.01 in 10.0 mi SSE 5.8 mph - N/A   Overcast